Location: Newark
(48.5156°N, 1.8989°W)
Time: 04:54:37
(UTC+00:00)

Transit 4A - Pass Details

Date: 24 November 2019
Orbit: 870 x 974 km, 66.8° (Epoch: 14 December)

Event Time Altitude Azimuth Distance (km) Brightness Sun altitude
Exits shadow 02:38:28 12° 47° (NE) 2,425 10.6 -46.9°
Drops below altitude 10° 02:39:09 10° 53° (NE) 2,553 10.7 -46.8°
Sets 02:42:45 0° 75° (ENE) 3,476 11.6 -46.2°
